�������l�o���
Date,Time,MP-1(��Sv/h),MP-2(��Sv/h),MP-3(��Sv/h),MP-4(��Sv/h),MP-5(��Sv/h),MP-6(��Sv/h),MP-7(��Sv/h),MP-8(��Sv/h),����,����(m/s),���J
2014/03/11,00:00,2.4,4.4,5.0,4.4,4.7,2.1,2.5,2.8,��,4.4,��
2014/03/11,00:10,2.4,4.4,5.0,4.4,4.7,2.0,2.5,2.8,��,4.6,��
2014/03/11,00:20,2.4,4.4,5.0,4.4,4.7,2.1,2.5,2.8,���k��,4.8,��
2014/03/11,00:30,2.4,4.4,5.0,4.4,4.7,2.1,2.5,2.8,��,6.3,��
2014/03/11,00:40,2.4,4.4,5.0,4.4,4.7,2.1,2.5,2.8,���k��,9.6,��
2014/03/11,00:50,2.4,4.4,5.0,4.4,4.7,2.1,2.5,2.8,���k��,8.9,��
2014/03/11,01:00,2.4,4.4,5.0,4.4,4.7,2.1,2.5,2.8,���k��,10.8,��
2014/03/11,01:10,2.4,4.4,5.0,4.4,4.7,2.1,2.5,2.8,���k��,10.7,��
2014/03/11,01:20,2.4,4.4,5.0,4.4,4.7,2.1,2.5,2.8,���k��,11.3,��
2014/03/11,01:30,2.4,4.4,5.0,4.4,4.7,2.1,2.5,2.8,���k��,10.7,��
2014/03/11,01:40,2.4,4.4,5.0,4.4,4.7,2.0,2.5,2.8,���k��,9.1,��
2014/03/11,01:50,2.4,4.4,5.0,4.4,4.7,2.1,2.5,2.8,���k��,8.5,��
2014/03/11,02:00,2.4,4.4,5.0,4.4,4.7,2.1,2.5,2.8,���k��,8.8,��
2014/03/11,02:10,2.4,4.4,5.0,4.4,4.7,2.0,2.5,2.8,���k��,9.6,��
2014/03/11,02:20,2.4,4.4,5.0,4.4,4.7,2.0,2.5,2.8,���k��,8.8,��
2014/03/11,02:30,2.4,4.4,5.0,4.4,4.7,2.0,2.5,2.8,���k��,7.7,��
2014/03/11,02:40,2.4,4.4,5.0,4.4,4.7,2.0,2.5,2.8,���k��,7.5,��
2014/03/11,02:50,2.4,4.4,5.0,4.4,4.7,2.1,2.5,2.8,���k��,6.0,��
2014/03/11,03:00,2.4,4.4,5.0,4.4,4.7,2.0,2.5,2.8,���k��,6.3,��
2014/03/11,03:10,2.4,4.4,5.0,4.4,4.7,2.0,2.5,2.8,���k��,4.9,��
2014/03/11,03:20,2.4,4.4,5.0,4.4,4.7,2.0,2.5,2.8,���k��,5.5,��
2014/03/11,03:30,2.4,4.4,5.0,4.4,4.7,2.0,2.5,2.8,���k��,4.7,��
2014/03/11,03:40,2.4,4.4,5.0,4.4,4.7,2.0,2.5,2.8,���k��,4.3,��
2014/03/11,03:50,2.4,4.4,5.0,4.4,4.7,2.0,2.5,2.8,�k��,5.8,��
2014/03/11,04:00,2.4,4.4,5.0,4.4,4.7,2.1,2.5,2.8,�k��,4.9,��
2014/03/11,04:10,2.4,4.4,5.0,4.4,4.7,2.1,2.5,2.8,���k��,5.7,��
2014/03/11,04:20,2.4,4.4,5.0,4.4,4.7,2.0,2.5,2.8,���k��,5.3,��
2014/03/11,04:30,2.4,4.4,5.0,4.4,4.7,2.0,2.5,2.8,��,4.6,��
2014/03/11,04:40,2.4,4.4,5.0,4.4,4.7,2.0,2.5,2.8,��,3.3,��
2014/03/11,04:50,2.4,4.4,5.0,4.4,4.7,2.0,2.5,2.8,��,3.9,��
2014/03/11,05:00,2.4,4.4,5.0,4.4,4.7,2.0,2.5,2.8,�쐼,2.9,��
2014/03/11,05:10,2.4,4.4,5.0,4.4,4.7,2.0,2.5,2.8,���쐼,3.4,��
2014/03/11,05:20,2.4,4.4,4.9,4.4,4.7,2.0,2.5,2.8,���쐼,3.2,��
2014/03/11,05:30,2.4,4.4,5.0,4.4,4.7,2.0,2.5,2.8,�쐼,2.6,��
2014/03/11,05:40,2.4,4.4,5.0,4.4,4.7,2.0,2.5,2.8,���쐼,1.9,��
2014/03/11,05:50,2.4,4.4,5.0,4.4,4.7,2.0,2.5,2.8,�쐼,2.5,��
2014/03/11,06:00,2.4,4.4,4.9,4.4,4.7,2.0,2.5,2.8,���쐼,2.2,��
2014/03/11,06:10,2.4,4.4,4.9,4.4,4.7,2.0,2.5,2.8,��,1.6,��
2014/03/11,06:20,2.4,4.4,4.9,4.4,4.7,2.0,2.5,2.8,���k��,2.1,��
2014/03/11,06:30,2.4,4.4,4.9,4.4,4.7,2.0,2.5,2.8,���k��,3.5,��
2014/03/11,06:40,2.4,4.4,5.0,4.4,4.7,2.0,2.5,2.8,���k��,3.7,��
2014/03/11,06:50,2.4,4.4,5.0,4.4,4.7,2.0,2.5,2.8,���k��,3.4,��
2014/03/11,07:00,2.4,4.4,5.0,4.4,4.7,2.0,2.5,2.8,���k��,4.3,��
2014/03/11,07:10,2.4,4.4,5.0,4.4,4.7,2.0,2.5,2.8,���k��,3.8,��
2014/03/11,07:20,2.4,4.4,5.0,4.4,4.7,2.0,2.5,2.8,�k��,3.5,��
2014/03/11,07:30,2.4,4.4,5.0,4.4,4.7,2.0,2.5,2.8,�k��,2.5,��
2014/03/11,07:40,2.4,4.4,5.0,4.4,4.7,2.0,2.5,2.8,�k�k��,1.8,��
2014/03/11,07:50,2.4,4.4,5.0,4.4,4.7,2.0,2.5,2.8,�k�k��,1.4,��
2014/03/11,08:00,2.4,4.4,5.0,4.4,4.7,2.0,2.5,2.8,�k��,1.5,��
2014/03/11,08:10,2.4,4.4,5.0,4.4,4.7,2.0,2.5,2.8,��,1.3,��
2014/03/11,08:20,2.4,4.4,5.0,4.4,4.7,2.0,2.5,2.8,���쐼,2.3,��
2014/03/11,08:30,2.4,4.4,5.0,4.4,4.7,2.0,2.5,2.8,���쐼,4.2,��
2014/03/11,08:40,2.4,4.4,5.0,4.4,4.7,2.0,2.5,2.8,��,4.2,��
2014/03/11,08:50,2.5,4.4,5.0,4.4,4.7,2.0,2.5,2.8,��,6.0,��
2014/03/11,09:00,2.4,4.4,5.0,4.4,4.7,2.0,2.5,2.8,���쐼,4.3,��
2014/03/11,09:10,2.5,4.4,5.0,4.4,4.7,2.0,2.5,2.8,���k��,4.5,��
2014/03/11,09:20,2.5,4.4,5.0,4.4,4.7,2.0,2.5,2.8,��,4.2,��
2014/03/11,09:30,2.5,4.4,5.0,4.4,4.7,2.0,2.5,2.8,��,6.6,��
2014/03/11,09:40,2.5,4.4,5.0,4.4,4.7,2.0,2.5,2.8,�k��,5.1,��
2014/03/11,09:50,2.5,4.4,5.0,4.4,4.7,2.0,2.5,2.8,��,5.8,��
2014/03/11,10:00,2.5,4.4,5.0,4.4,4.7,2.0,2.5,2.8,���k��,5.8,��
2014/03/11,10:10,2.5,4.4,5.0,4.4,4.7,2.0,2.5,2.8,��,2.8,��
2014/03/11,10:20,2.5,4.4,5.0,4.4,4.7,2.0,2.5,2.8,���k��,4.2,��
2014/03/11,10:30,-,4.5,5.0,4.4,4.7,2.0,2.5,2.8,���k��,4.8,��
2014/03/11,10:40,-,4.5,5.0,4.4,4.7,2.0,2.5,2.8,���k��,5.8,��
2014/03/11,10:50,-,4.4,5.0,4.4,4.7,2.0,2.5,2.8,��,6.0,��
2014/03/11,11:00,-,4.5,5.0,4.4,4.7,2.0,2.5,2.8,���k��,5.0,��
2014/03/11,11:10,-,4.4,5.0,4.4,4.7,2.0,2.5,2.8,���k��,6.1,��
2014/03/11,11:20,-,4.4,5.0,4.5,4.7,2.0,2.5,2.8,���k��,8.8,��
2014/03/11,11:30,-,4.5,5.0,4.4,4.7,2.0,2.5,2.8,���k��,6.0,��
2014/03/11,11:40,-,4.4,5.0,4.4,4.7,2.0,2.5,2.8,���k��,9.7,��
2014/03/11,11:50,-,4.5,5.0,4.4,4.7,2.0,2.5,2.8,��,7.4,��
2014/03/11,12:00,-,4.5,5.0,4.5,4.7,2.0,2.5,2.8,��,6.5,��
2014/03/11,12:10,-,4.5,5.0,4.5,4.7,2.0,2.5,2.8,��,6.7,��
2014/03/11,12:20,-,4.4,5.0,4.4,4.7,2.0,2.5,2.8,��,5.3,��
2014/03/11,12:30,-,4.5,5.0,4.5,4.7,2.0,2.5,2.8,�k��,5.1,��
2014/03/11,12:40,-,4.5,5.0,4.5,4.7,2.0,2.5,2.8,�k��,4.4,��
2014/03/11,12:50,2.5,4.5,5.0,4.5,4.7,2.0,2.5,2.8,�k��,6.4,��
2014/03/11,13:00,2.5,4.5,5.0,4.5,4.7,2.0,2.5,2.8,�k��,5.6,��
2014/03/11,13:10,2.5,4.5,5.0,4.5,4.7,2.0,2.5,2.8,�k��,7.9,��
2014/03/11,13:20,2.5,4.5,5.0,4.5,4.7,2.0,2.5,2.8,�k��,6.4,��
2014/03/11,13:30,2.5,4.5,5.0,4.5,4.7,2.0,2.5,2.8,�k��,6.1,��
2014/03/11,13:40,2.5,4.5,5.0,4.5,4.7,2.0,2.5,2.8,�k��,5.6,��
2014/03/11,13:50,2.5,4.5,5.0,4.5,4.7,2.0,2.5,2.8,�k�k��,4.3,��
2014/03/11,14:00,2.5,4.5,5.0,4.5,4.7,2.0,2.5,2.8,�k��,2.9,��
2014/03/11,14:10,2.5,4.5,5.0,4.5,4.7,2.0,2.5,2.8,�k�k��,4.9,��
2014/03/11,14:20,2.5,4.5,5.0,4.5,4.7,2.0,2.5,2.8,�k��,4.1,��
2014/03/11,14:30,2.5,4.5,5.0,4.5,4.7,2.0,2.5,2.8,�k�k��,5.6,��
2014/03/11,14:40,2.5,4.5,5.0,4.5,4.7,2.0,2.5,2.8,���k��,3.6,��
2014/03/11,14:50,2.5,4.5,5.0,4.5,4.7,2.0,2.5,2.8,���k��,5.4,��
2014/03/11,15:00,2.5,4.5,5.0,4.5,4.7,2.0,2.5,2.8,�k��,3.3,��
2014/03/11,15:10,2.5,4.5,5.0,4.5,4.7,2.0,2.5,2.8,���k��,4.4,��
2014/03/11,15:20,2.5,4.5,5.0,4.5,4.7,2.0,2.5,2.8,�k��,4.8,��
2014/03/11,15:30,2.5,4.5,5.0,4.5,4.7,2.0,2.5,2.8,�k��,3.3,��
2014/03/11,15:40,2.5,4.5,5.0,4.5,4.7,2.0,2.5,2.8,�k��,3.9,��
2014/03/11,15:50,2.5,4.5,5.0,4.5,4.7,2.0,2.5,2.8,�k��,2.3,��
2014/03/11,16:00,2.5,4.5,5.0,4.5,4.7,2.0,2.5,2.8,���쐼,4.9,��
2014/03/11,16:10,2.5,4.5,5.0,4.5,4.7,2.0,2.5,2.8,���쐼,6.3,��
2014/03/11,16:20,2.5,4.5,5.0,4.5,4.7,2.0,2.5,2.8,���쐼,7.5,��
2014/03/11,16:30,2.5,4.5,5.0,4.5,4.7,2.0,2.5,2.8,���쐼,9.1,��
2014/03/11,16:40,2.5,4.5,5.0,4.5,4.7,2.0,2.5,2.8,���쐼,9.3,��
2014/03/11,16:50,2.5,4.5,5.0,4.5,4.7,2.0,2.5,2.8,���쐼,10.5,��
2014/03/11,17:00,2.5,4.5,5.0,4.5,4.7,2.0,2.5,2.8,��,10.1,��
2014/03/11,17:10,2.5,4.5,5.0,4.5,4.7,2.0,2.5,2.8,���쐼,9.6,��
2014/03/11,17:20,2.5,4.5,5.0,4.5,4.7,2.0,2.5,2.8,���쐼,10.2,��
2014/03/11,17:30,2.5,4.5,5.0,4.5,4.7,2.0,2.5,2.8,���쐼,7.9,��
2014/03/11,17:40,2.5,4.5,5.0,4.5,4.7,2.0,2.5,2.8,��,10.4,��
2014/03/11,17:50,2.5,4.5,5.0,4.5,4.7,2.0,2.5,2.8,���쐼,6.3,��
2014/03/11,18:00,2.5,4.5,5.0,4.5,4.7,2.0,2.5,2.8,���쐼,7.7,��
2014/03/11,18:10,2.5,4.5,5.0,4.5,4.7,2.0,2.5,2.8,��,6.1,��
2014/03/11,18:20,2.5,4.5,5.0,4.4,4.7,2.0,2.5,2.8,���쐼,6.3,��
2014/03/11,18:30,2.5,4.5,5.0,4.5,4.7,2.0,2.5,2.8,���쐼,5.4,��
2014/03/11,18:40,2.5,4.5,5.0,4.5,4.7,2.0,2.5,2.8,���쐼,6.9,��
2014/03/11,18:50,2.5,4.5,5.0,4.5,4.7,2.0,2.5,2.8,���쐼,6.1,��
2014/03/11,19:00,2.5,4.5,5.0,4.5,4.7,2.0,2.5,2.8,���쐼,9.3,��
2014/03/11,19:10,2.5,4.5,5.0,4.5,4.7,2.0,2.5,2.8,���쐼,7.1,��
2014/03/11,19:20,2.5,4.5,5.0,4.5,4.7,2.0,2.5,2.8,���쐼,8.0,��
2014/03/11,19:30,2.5,4.5,5.0,4.5,4.7,2.0,2.5,2.8,���쐼,8.8,��
2014/03/11,19:40,2.5,4.5,5.0,4.5,4.7,2.0,2.5,2.8,���쐼,8.2,��
2014/03/11,19:50,2.5,4.5,5.0,4.5,4.7,2.0,2.5,2.8,���쐼,8.8,��
2014/03/11,20:00,2.5,4.4,5.0,4.5,4.7,2.0,2.5,2.8,���쐼,9.3,��
2014/03/11,20:10,2.5,4.4,5.0,4.5,4.7,2.0,2.5,2.8,�쐼,9.6,��
2014/03/11,20:20,2.5,4.4,5.0,4.5,4.7,2.0,2.5,2.8,���쐼,7.2,��
2014/03/11,20:30,2.5,4.5,5.0,4.5,4.7,2.0,2.5,2.8,���쐼,8.2,��
2014/03/11,20:40,2.5,4.5,5.0,4.5,4.7,2.0,2.5,2.8,�쐼,6.6,��
2014/03/11,20:50,2.5,4.5,5.0,4.4,4.7,2.0,2.5,2.8,�쐼,6.8,��
2014/03/11,21:00,2.5,4.4,5.0,4.5,4.7,2.0,2.5,2.8,�쐼,4.5,��
2014/03/11,21:10,2.5,4.4,5.0,4.5,4.7,2.0,2.5,2.8,�쐼,4.0,��
2014/03/11,21:20,2.5,4.4,5.0,4.5,4.7,2.0,2.5,2.8,�쐼,3.9,��
2014/03/11,21:30,2.5,4.5,5.0,4.5,4.7,2.0,2.5,2.8,��쐼,4.1,��
2014/03/11,21:40,2.5,4.5,5.0,4.4,4.7,2.0,2.5,2.8,�쐼,4.1,��
2014/03/11,21:50,2.5,4.5,5.0,4.4,4.7,2.0,2.5,2.8,��쐼,4.5,��
2014/03/11,22:00,2.5,4.4,5.0,4.4,4.7,2.0,2.5,2.8,��쐼,5.3,��
2014/03/11,22:10,2.5,4.4,5.0,4.4,4.7,2.0,2.5,2.8,��쐼,5.6,��
2014/03/11,22:20,2.4,4.4,5.0,4.5,4.7,2.0,2.5,2.8,��쐼,4.7,��
2014/03/11,22:30,2.5,4.4,5.0,4.5,4.7,2.0,2.5,2.8,��쐼,4.6,��
2014/03/11,22:40,2.5,4.4,5.0,4.4,4.7,2.0,2.5,2.8,��쐼,4.3,��
2014/03/11,22:50,2.5,4.4,5.0,4.5,4.7,2.0,2.5,2.8,��쐼,4.1,��
2014/03/11,23:00,2.5,4.4,5.0,4.4,4.7,2.0,2.5,2.8,�쐼,5.0,��
2014/03/11,23:10,2.5,4.4,5.0,4.4,4.7,2.0,2.5,2.8,���쐼,4.9,��
2014/03/11,23:20,2.5,4.4,5.0,4.5,4.7,2.0,2.5,2.8,���쐼,5.5,��
2014/03/11,23:30,2.5,4.4,5.0,4.5,4.7,2.0,2.5,2.8,���쐼,4.2,��
2014/03/11,23:40,2.5,4.4,5.0,4.5,4.7,2.0,2.5,2.8,���쐼,3.3,��
2014/03/11,23:50,2.5,4.4,5.0,4.5,4.7,2.0,2.5,2.8,�쐼,3.8,��
